Location: Tuttlingen
(47.9853°N, 8.8165°E)
Time: 21:01:44
(UTC+01:00)

ISS - Pass Details

Date: 11 January 2018
Orbit: 402 x 407 km, 51.6° (Epoch: 23 January)

Event Time Altitude Azimuth Distance (km) Brightness Sun altitude
Exits shadow 07:13:27 14° 280° (W) 1,275 -1.9 -9.5°
Maximum altitude 07:16:03 39° 213° (SSW) 626 -3.0 -9.1°
Drops below altitude 10° 07:19:08 10° 143° (SE) 1,463 0.0 -8.7°
Sets 07:21:17 0° 136° (SE) 2,321 1.5 -8.3°
